Location: Limerick
(52.6800°N, 8.6400°W)
Time: 11:53:35
(UTC+01:00)

ISS - All Passes

Search period start: 25 July 2017 00:00
Search period end: 04 August 2017 00:00
Orbit: 400 x 408 km, 51.6° (Epoch: 25 July)

Date Brightness Start Highest point End Pass type
(mag) Time Alt. Az. Time Alt. Az. Time Alt. Az.
25 Jul - 00:41:03 10° WSW 00:44:18 70° S 00:47:33 10° E visible
25 Jul - 02:17:27 10° W 02:20:41 62° SSW 02:23:55 10° ESE visible
25 Jul - 03:54:09 10° W 03:56:48 23° SSW 03:59:27 10° SSE visible
25 Jul - 22:13:25 10° SSW 22:15:56 21° SSE 22:18:27 10° E daylight
25 Jul - 23:48:47 10° WSW 23:52:00 59° SSE 23:55:13 10° E visible
26 Jul - 01:25:08 10° W 01:28:23 72° S 01:31:39 10° ESE visible
26 Jul - 03:01:39 10° W 03:04:37 32° SSW 03:07:35 10° SE visible
26 Jul - 21:22:03 10° S 21:23:49 14° SE 21:25:37 10° ESE daylight
26 Jul - 22:56:36 10° SW 22:59:43 45° SSE 23:02:52 10° E visible
27 Jul - 00:32:48 10° W 00:36:03 75° S 00:39:19 10° E visible
27 Jul - 02:09:15 10° W 02:12:23 44° SSW 02:15:31 10° SE visible
27 Jul - 03:46:33 10° WSW 03:48:16 14° SW 03:49:59 10° S night (unlit)
27 Jul - 22:04:30 10° SW 22:07:29 33° SSE 22:10:27 10° E daylight
27 Jul - 23:40:28 10° WSW 23:43:43 72° S 23:46:58 10° E visible
28 Jul - 01:16:53 10° W 01:20:05 58° SSW 01:23:19 10° ESE visible
28 Jul - 02:53:39 10° W 02:56:09 20° SSW 02:58:38 10° SSE visible
28 Jul - 21:12:35 10° SSW 21:15:16 23° SSE 21:17:56 10° E daylight
28 Jul - 22:48:09 10° WSW 22:51:23 63° SSE 22:54:37 10° E visible
29 Jul - 00:24:31 10° W 00:27:46 69° S 00:31:00 10° ESE visible
29 Jul - 02:01:04 10° W 02:03:57 29° SSW 02:06:50 10° SE visible
29 Jul - 20:21:00 10° S 20:23:05 16° SE 20:25:12 10° ESE daylight
29 Jul - 21:55:53 10° WSW 21:59:03 50° SSE 22:02:13 10° E daylight
29 Jul - 23:32:09 10° W 23:35:24 75° S 23:38:40 10° E visible
30 Jul - 01:08:36 10° W 01:11:42 40° SSW 01:14:47 10° SE visible
30 Jul - 02:46:18 10° WSW 02:47:31 12° SW 02:48:44 10° SSW night (unlit)
30 Jul - 19:30:24 10° SSE 19:30:58 10° SE 19:31:33 10° SE daylight
30 Jul - 21:03:42 10° SW 21:06:45 37° SSE 21:09:48 10° E daylight
30 Jul - 22:39:46 10° W 22:43:01 74° S 22:46:16 10° E visible
31 Jul - 00:16:11 10° W 00:19:24 53° SSW 00:22:34 10° ESE visible
31 Jul - 01:53:06 10° W 01:55:23 18° SW 01:57:40 10° S visible
31 Jul - 20:11:41 10° SSW 20:14:29 27° SSE 20:17:16 10° E daylight
31 Jul - 21:47:24 10° WSW 21:50:38 67° S 21:53:52 10° E daylight
31 Jul - 23:23:47 10° W 23:27:01 66° S 23:30:15 10° ESE visible
01 Aug - 01:00:24 10° W 01:03:10 26° SSW 01:05:56 10° SSE visible
01 Aug - 19:19:55 10° SSW 19:22:15 18° SE 19:24:36 10° E daylight
01 Aug - 20:55:04 10° WSW 20:58:16 55° SSE 21:01:28 10° E daylight
01 Aug - 22:31:22 10° W 22:34:38 74° S 22:37:53 10° E visible
02 Aug - 00:07:51 10° W 00:10:53 36° SSW 00:13:55 10° SE visible
02 Aug - 18:28:42 10° SSE 18:30:04 12° SE 18:31:27 10° ESE daylight
02 Aug - 20:02:48 10° SW 20:05:54 41° SSE 20:09:01 10° E daylight
02 Aug - 21:38:57 10° W 21:42:13 75° S 21:45:28 10° E daylight
02 Aug - 23:15:23 10° W 23:18:33 49° SSW 23:21:43 10° ESE visible
03 Aug - 00:52:28 10° WSW 00:54:29 15° SW 00:56:31 10° S visible
03 Aug - 19:10:42 10° SW 19:13:35 30° SSE 19:16:29 10° E daylight
03 Aug - 20:46:32 10° WSW 20:49:47 70° S 20:53:02 10° E daylight
03 Aug - 22:22:56 10° W 22:26:10 62° SSW 22:29:23 10° ESE visible
